This demonstration page uses our WeatherBlox Daily Observations layout. Learn more.

Left ArrowRight Arrow

41.55636, -103.73856

Hourly Observations for December 9, 2022

Temp ( °F °C ) Dew Point ( °F °C ) Humidity (%) Winds ( mph kmh ) Pressure ( in mb ) Visibility ( mi km ) Precip ( " mm )
12:55 am 00:55 undefined 19 -7.5 6 -14.6 57 57 W 12 19 30.35 1028 10 16 0.00 0.00
1:55 am 01:55 undefined 21 -6.1 5 -14.9 50 50 WNW 6 9 30.21 1023 10 16 0.00 0.00
2:55 am 02:55 undefined 25 -3.8 9 -13 49 49 WNW 10 17 30.18 1022 10 16 0.00 0.00
3:55 am 03:55 undefined 23 -5.2 8 -13.5 52 52 WSW 8 13 30.17 1022 10 16 0.00 0.00
4:55 am 04:55 undefined 25 -4.1 6 -14.6 44 44 SW 8 13 30.15 1021 10 16 0.00 0.00
5:55 am 05:55 undefined 22 -5.4 6 -14.5 49 49 SW 8 13 30.15 1021 10 16 0.00 0.00
6:55 am 06:55 undefined 20 -6.7 5 -15.2 51 51 SW 6 9 30.16 1022 10 16 0.00 0.00
7:55 am 07:55 undefined 18 -8 5 -15 57 57 W 5 7 30.16 1021 10 16 0.00 0.00
8:55 am 08:55 undefined 24 -4.2 8 -13.1 50 50 WNW 3 6 30.15 1021 10 16 0.00 0.00
9:55 am 09:55 undefined 30 -1.3 10 -12 44 44 SSW 10 17 30.09 1019 10 16 0.00 0.00
10:55 am 10:55 undefined 36 2.1 13 -10.8 38 38 SW 8 13 30.05 1018 10 16 0.00 0.00
11:55 am 11:55 undefined 34 1.1 19 -7.4 53 53 WSW 8 13 30.01 1016 10 16 0.00 0.00
12:55 pm 12:55 undefined 36 2.1 19 -7.5 49 49 Calm 30.01 1016 10 16 0.00 0.00
1:55 pm 13:55 undefined 41 5 19 -7.5 40 40 WSW 8 13 29.95 1014 10 16 0.00 0.00
2:55 pm 14:55 undefined 43 6 18 -8 36 36 SW 10 17 29.93 1014 10 16 0.00 0.00
3:55 pm 15:55 undefined 38 3.5 19 -7 46 46 SW 8 13 29.97 1015 10 16 0.00 0.00
4:55 pm 16:55 undefined 37 2.9 14 -10 38 38 W 9 15 29.98 1015 10 16 0.00 0.00
5:55 pm 17:55 undefined 38 3.3 17 -8.4 42 42 WNW 14 22 30.01 1016 10 16 0.00 0.00
6:55 pm 18:55 undefined 33 0.7 17 -8.5 50 50 WNW 10 17 30.07 1018 10 16 0.00 0.00
7:55 pm 19:55 undefined 25 -3.8 14 -9.8 63 63 W 12 19 30.11 1020 10 16 0.00 0.00
8:55 pm 20:55 undefined 30 -1.1 18 -7.9 60 60 WNW 16 26 30.09 1019 10 16 0.00 0.00
9:55 pm 21:55 undefined 32 -0.1 18 -7.8 56 56 WNW 15 24 30.09 1019 10 16 0.00 0.00
10:55 pm 22:55 undefined 30 -0.9 18 -7.9 59 59 WNW 16 26 30.09 1019 10 16 0.00 0.00
11:55 pm 23:55 undefined 32 -0.1 15 -9.3 50 50 WNW 18 30 30.11 1020 10 16 0.00 0.00

Powered by AerisWeather